N6OIL Weather Reports


Display with metric or nautical units.
time (UTC)temp
F
wind
direction
speed
MPH
gust
MPH
rain 1hr
in
rain 24hr
in
rain mn
in
humidity
%
barometer
mb
20260906214206 68 315 12.0 19.0 0.00 0.40 0.40 86 1017.5
20260906213704 68 278 12.0 19.0 0.00 0.40 0.40 86 1017.4
20260906213204 68 282 12.0 18.0 0.00 0.40 0.40 86 1017.4
20260906212704 68 275 10.0 18.0 0.00 0.40 0.40 85 1017.3
20260906212206 68 294 11.0 18.0 0.01 0.40 0.40 86 1017.4
20260906211204 68 294 10.0 13.0 0.01 0.40 0.40 86 1017.4
20260906210704 69 273 8.0 13.0 0.01 0.40 0.40 87 1017.6
20260906205204 68 283 10.0 14.0 0.03 0.40 0.40 87 1018.0
20260906204704 68 269 9.0 15.0 0.04 0.40 0.40 87 1018.0
20260906204204 68 301 9.0 15.0 0.04 0.40 0.40 88 1018.0
20260906203704 67 302 11.0 15.0 0.05 0.40 0.40 87 1018.2
20260906203206 68 299 10.0 14.0 0.05 0.40 0.40 88 1018.3
20260906202704 68 305 10.0 14.0 0.06 0.40 0.40 88 1018.2
20260906202204 68 298 10.0 13.0 0.06 0.39 0.39 88 1018.2
20260906201204 68 274 7.0 10.0 0.07 0.39 0.39 88 1018.3
20260906200704 68 292 6.0 10.0 0.08 0.39 0.39 88 1018.6
20260906200203 68 287 6.0 9.0 0.07 0.38 0.38 88 1018.7
20260906195706 68 288 4.0 9.0 0.07 0.38 0.38 88 1018.6
20260906195204 68 296 5.0 9.0 0.07 0.37 0.37 88 1019.1
20260906193704 68 302 4.0 7.0 0.05 0.35 0.35 88 1019.2
20260906192704 68 297 3.0 8.0 0.06 0.34 0.34 88 1019.1
20260906192204 68 297 3.0 8.0 0.05 0.33 0.33 88 1019.3
20260906191704 68 296 2.0 7.0 0.05 0.32 0.32 88 1019.6
20260906191204 68 294 1.0 5.0 0.04 0.32 0.32 88 1019.6
20260906190705 68 294 2.0 7.0 0.03 0.31 0.31 88 1019.5
20260906190204 68 294 2.0 7.0 0.03 0.31 0.31 88 1019.5
20260906185704 68 294 2.0 7.0 0.03 0.31 0.31 88 1019.4
20260906184704 68 294 1.0 5.0 0.04 0.30 0.30 88 1019.5
20260906184204 68 294 1.0 8.0 0.04 0.30 0.30 88 1019.4
20260906183704 68 294 2.0 8.0 0.05 0.30 0.30 88 1019.3
20260906183204 68 294 4.0 10.0 0.05 0.29 0.29 88 1019.3
20260906182704 68 292 5.0 10.0 0.04 0.28 0.28 87 1019.2
20260906182204 68 290 6.0 10.0 0.04 0.28 0.28 88 1019.2
20260906181204 68 285 4.0 7.0 0.05 0.28 0.28 88 1019.1
20260906180704 68 294 3.0 7.0 0.05 0.28 0.28 88 1019.2
20260906175204 67 296 0.0 0.0 0.06 0.26 0.26 88 1019.1
20260906173704 67 296 0.0 3.0 0.06 0.25 0.25 87 1019.2
20260906173205 67 296 0.0 8.0 0.05 0.24 0.24 87 1019.1
20260906172704 67 296 1.0 9.0 0.05 0.24 0.24 87 1019.0
20260906172204 67 296 3.0 9.0 0.05 0.24 0.24 87 1018.8
20260906171704 67 296 4.0 10.0 0.04 0.23 0.23 87 1018.6
20260906170704 67 302 7.0 16.0 0.04 0.23 0.23 86 1018.3
20260906170204 67 304 8.0 16.0 0.03 0.22 0.22 85 1018.2
20260906165704 67 298 10.0 16.0 0.02 0.21 0.21 85 1018.1
20260906165205 68 309 10.0 15.0 0.01 0.20 0.20 85 1018.1
20260906164704 68 296 9.0 14.0 0.00 0.19 0.19 85 1017.8
20260906163704 67 309 9.0 14.0 0.00 0.19 0.19 85 1017.6
20260906163205 67 301 9.0 14.0 0.01 0.19 0.19 85 1017.5
20260906162704 67 292 9.0 13.0 0.01 0.19 0.19 86 1017.5
20260906161204 67 304 5.0 11.0 0.03 0.19 0.19 86 1017.4
20260906160704 66 290 5.0 12.0 0.03 0.19 0.19 86 1017.4
20260906160204 66 282 7.0 13.0 0.04 0.19 0.19 86 1017.3
20260906155704 66 280 8.0 13.0 0.05 0.19 0.19 87 1017.2
20260906154704 65 291 8.0 11.0 0.07 0.19 0.19 88 1017.3
20260906154204 65 293 6.0 11.0 0.07 0.19 0.19 88 1017.4
20260906152704 64 319 4.0 8.0 0.07 0.18 0.18 87 1017.8
20260906152205 64 319 4.0 6.0 0.06 0.17 0.17 87 1018.1
20260906151705 64 319 4.0 8.0 0.06 0.17 0.17 87 1018.1
20260906151204 64 319 4.0 8.0 0.05 0.16 0.16 87 1018.2
20260906150704 64 319 5.0 8.0 0.05 0.16 0.16 87 1018.2
20260906150206 64 320 5.0 8.0 0.03 0.14 0.14 87 1018.2
20260906145704 64 322 5.0 8.0 0.04 0.14 0.14 87 1018.1
20260906145204 64 328 4.0 5.0 0.03 0.13 0.13 86 1018.1
20260906144704 65 334 3.0 5.0 0.02 0.12 0.12 86 1018.2
20260906144206 65 342 3.0 5.0 0.01 0.11 0.11 86 1018.2
20260906143704 65 342 3.0 4.0 0.02 0.11 0.11 86 1018.2
20260906143204 65 342 2.0 4.0 0.03 0.11 0.11 86 1018.1
20260906142704 64 342 2.0 8.0 0.04 0.11 0.11 85 1018.0
20260906142206 64 342 3.0 8.0 0.06 0.11 0.11 85 1017.7
20260906141704 64 342 3.0 8.0 0.07 0.11 0.11 84 1017.7
20260906141204 64 331 3.0 6.0 0.08 0.11 0.11 84 1017.5
20260906140704 64 331 3.0 6.0 0.11 0.11 0.11 84 1017.4
20260906135204 64 331 3.0 8.0 0.10 0.10 0.10 82 1017.2
20260906134704 64 331 4.0 8.0 0.10 0.10 0.10 80 1017.1
20260906134205 64 331 4.0 8.0 0.09 0.09 0.09 79 1016.8
20260906133704 65 331 4.0 10.0 0.08 0.08 0.08 77 1017.0
20260906133204 65 331 6.0 10.0 0.07 0.07 0.07 73 1017.1
20260906132705 65 330 6.0 9.0 0.06 0.06 0.06 72 1016.8
20260906132204 65 311 5.0 9.0 0.05 0.05 0.05 70 1016.6
20260906131704 66 311 5.0 7.0 0.04 0.04 0.04 64 1016.7
20260906131204 67 300 3.0 4.0 0.00 0.00 0.00 52 1016.5
20260906130704 67 300 1.0 3.0 0.00 0.00 0.00 43 1016.3
20260906130204 67 300 1.0 3.0 0.00 0.00 0.00 43 1016.1
20260906125704 67 300 2.0 3.0 0.00 0.00 0.00 43 1016.0
20260906125206 67 300 1.0 2.0 0.00 0.00 0.00 43 1015.9
20260906124704 67 300 1.0 2.0 0.00 0.00 0.00 43 1016.0
20260906124204 67 300 0.0 2.0 0.00 0.00 0.00 43 1015.9
20260906123704 67 300 1.0 4.0 0.00 0.00 0.00 43 1015.9
20260906123204 68 300 1.0 4.0 0.00 0.00 0.00 43 1015.9
20260906122704 68 300 2.0 4.0 0.00 0.00 0.00 43 1016.0
20260906122204 68 300 3.0 4.0 0.00 0.00 0.00 43 1016.0
20260906121704 68 300 3.0 4.0 0.00 0.00 0.00 43 1016.0
20260906121204 68 300 2.0 3.0 0.00 0.00 0.00 44 1016.0
20260906120704 69 300 1.0 5.0 0.00 0.00 0.00 43 1015.9
20260906120204 69 300 1.0 8.0 0.00 0.00 0.00 43 1016.0
20260906115704 70 300 3.0 8.0 0.00 0.00 0.00 49 1016.1
20260906115205 70 300 5.0 8.0 0.00 0.00 0.00 49 1016.0
20260906114704 70 301 4.0 7.0 0.00 0.00 0.00 49 1016.2
20260906114204 70 304 4.0 7.0 0.00 0.00 0.00 48 1016.2
20260906113705 70 304 3.0 8.0 0.00 0.00 0.00 48 1016.2
20260906112704 70 304 6.0 9.0 0.00 0.00 0.00 47 1016.1
20260906112204 70 304 6.0 8.0 0.00 0.00 0.00 47 1016.2
20260906111705 69 275 5.0 7.0 0.00 0.00 0.00 46 1016.2
20260906110704 69 276 1.0 2.0 0.00 0.00 0.00 44 1016.1
20260906110204 69 277 1.0 3.0 0.00 0.00 0.00 43 1016.2
20260906105704 70 277 1.0 6.0 0.00 0.00 0.00 42 1016.2
20260906105204 70 277 2.0 7.0 0.00 0.00 0.00 42 1016.1
20260906104704 70 277 3.0 7.0 0.00 0.00 0.00 42 1016.1
20260906103204 70 40 2.0 6.0 0.00 0.00 0.00 42 1016.1
20260906102704 70 41 3.0 6.0 0.00 0.00 0.00 42 1016.0
20260906101704 70 46 3.0 4.0 0.00 0.00 0.00 42 1016.1
20260906100704 69 68 2.0 5.0 0.00 0.00 0.00 43 1016.2
20260906100204 69 68 3.0 5.0 0.00 0.00 0.00 43 1016.3
20260906095704 69 68 3.0 5.0 0.00 0.00 0.00 43 1016.1
20260906095204 69 72 2.0 5.0 0.00 0.00 0.00 43 1016.2
20260906094704 69 72 3.0 5.0 0.00 0.00 0.00 43 1016.3
20260906094205 68 72 3.0 5.0 0.00 0.00 0.00 41 1016.2
20260906093204 68 73 2.0 3.0 0.00 0.00 0.00 40 1016.2
20260906092704 68 99 2.0 3.0 0.00 0.00 0.00 40 1016.1
20260906092204 68 99 1.0 2.0 0.00 0.00 0.00 40 1016.2
20260906091704 68 99 1.0 2.0 0.00 0.00 0.00 40 1016.1
20260906091204 68 99 0.0 3.0 0.00 0.00 0.00 40 1015.9
20260906090704 68 99 1.0 3.0 0.00 0.00 0.00 40 1016.0
20260906090204 68 99 1.0 3.0 0.00 0.00 0.00 40 1016.1
20260906085704 68 99 0.0 3.0 0.00 0.00 0.00 40 1016.1
20260906085205 68 99 0.0 3.0 0.00 0.00 0.00 40 1016.1
20260906084704 68 99 1.0 3.0 0.00 0.00 0.00 40 1016.2
20260906084204 68 99 1.0 3.0 0.00 0.00 0.00 40 1016.2
20260906083704 69 99 1.0 3.0 0.00 0.00 0.00 39 1016.3
20260906083205 69 99 1.0 6.0 0.00 0.00 0.00 39 1016.2
20260906082704 69 99 1.0 6.0 0.00 0.00 0.00 39 1016.3
20260906082204 69 99 2.0 6.0 0.00 0.00 0.00 40 1016.3
20260906081704 69 100 1.0 2.0 0.00 0.00 0.00 39 1016.3
20260906081204 69 15 1.0 2.0 0.00 0.00 0.00 39 1016.4
20260906080705 69 15 1.0 2.0 0.00 0.00 0.00 40 1016.4
20260906075704 69 15 1.0 3.0 0.00 0.00 0.00 40 1016.2
20260906075204 69 15 1.0 4.0 0.00 0.00 0.00 40 1016.2
20260906074704 70 15 2.0 4.0 0.00 0.00 0.00 42 1016.2
20260906074204 70 15 2.0 4.0 0.00 0.00 0.00 41 1016.2
20260906073704 71 10 1.0 8.0 0.00 0.00 0.00 42 1016.2
20260906073205 71 10 2.0 9.0 0.00 0.00 0.00 41 1016.1
20260906072705 71 10 4.0 10.0 0.00 0.00 0.00 41 1016.1
20260906072205 71 10 6.0 10.0 0.00 0.00 0.00 41 1016.0
20260906071204 71 3 7.0 12.0 0.00 0.00 0.00 40 1016.1
20260906070704 71 3 8.0 12.0 0.00 0.00 0.00 39 1016.1
20260906070204 72 346 8.0 11.0 0.00 0.00 0.00 39 1016.2
20260906065704 72 328 7.0 13.0 0.00 0.00 0.00 39 1016.1
20260906065204 72 341 8.0 13.0 0.00 0.00 0.00 39 1016.0
20260906064704 72 339 8.0 13.0 0.00 0.00 0.00 39 1016.1
20260906064206 72 331 8.0 13.0 0.00 0.00 0.00 39 1016.1
20260906063704 72 329 9.0 13.0 0.00 0.00 0.00 39 1016.1
20260906063204 72 340 9.0 13.0 0.00 0.00 0.00 39 1016.2
20260906062704 72 331 9.0 13.0 0.00 0.00 0.00 39 1016.3
20260906062206 72 341 8.0 11.0 0.00 0.00 0.00 40 1016.2
20260906061704 72 337 7.0 11.0 0.00 0.00 0.00 40 1016.3
20260906061204 72 318 7.0 13.0 0.00 0.00 0.00 41 1016.2
20260906060704 72 315 6.0 14.0 0.00 0.00 0.00 41 1016.2
20260906060206 73 335 7.0 15.0 0.00 0.00 0.00 41 1016.3
20260906055704 73 309 9.0 15.0 0.00 0.00 0.00 41 1016.2
20260906054704 73 309 8.0 13.0 0.00 0.00 0.00 41 1016.3
20260906054206 73 340 9.0 13.0 0.00 0.00 0.00 42 1016.3
20260906053704 73 323 8.0 13.0 0.00 0.00 0.00 42 1016.3
20260906052705 73 334 8.0 13.0 0.00 0.00 0.00 43 1016.4
20260906052204 74 324 9.0 13.0 0.00 0.00 0.00 43 1016.4
20260906051704 74 332 8.0 13.0 0.00 0.00 0.00 43 1016.4
20260906051204 74 353 8.0 18.0 0.00 0.00 0.00 43 1016.4
20260906050704 74 344 10.0 18.0 0.00 0.00 0.00 43 1016.4
20260906050206 74 329 12.0 18.0 0.00 0.00 0.00 42 1016.4
20260906045704 74 325 12.0 16.0 0.00 0.00 0.00 43 1016.3
20260906044704 74 315 11.0 14.0 0.00 0.00 0.00 43 1016.3
20260906044205 74 331 9.0 15.0 0.00 0.00 0.00 44 1016.4
20260906043704 74 315 9.0 15.0 0.00 0.00 0.00 44 1016.3
20260906043204 75 344 9.0 14.0 0.00 0.00 0.00 44 1016.4
20260906042704 75 322 10.0 14.0 0.00 0.00 0.00 43 1016.3
20260906042206 75 324 8.0 14.0 0.00 0.00 0.00 43 1016.3
20260906041704 75 338 7.0 11.0 0.00 0.00 0.00 43 1016.3
20260906041204 75 327 8.0 11.0 0.00 0.00 0.00 42 1016.2
20260906040703 75 323 8.0 11.0 0.00 0.00 0.00 42 1016.2
20260906040204 75 325 7.0 12.0 0.00 0.00 0.00 41 1016.1
20260906035704 75 324 8.0 12.0 0.00 0.00 0.00 41 1016.1
20260906035204 76 337 8.0 12.0 0.00 0.00 0.00 41 1016.2
20260906034704 76 315 8.0 12.0 0.00 0.00 0.00 41 1016.1
20260906034204 76 330 7.0 12.0 0.00 0.00 0.00 40 1016.1
20260906032704 76 318 6.0 11.0 0.00 0.00 0.00 39 1015.9
20260906032204 76 304 7.0 11.0 0.00 0.00 0.00 38 1015.9
20260906031704 76 300 7.0 11.0 0.00 0.00 0.00 38 1015.9
20260906031205 76 298 6.0 11.0 0.00 0.00 0.00 38 1015.9
20260906030704 76 313 4.0 9.0 0.00 0.00 0.00 38 1015.7
20260906030204 76 317 4.0 9.0 0.00 0.00 0.00 37 1015.7
20260906025705 76 320 3.0 9.0 0.00 0.00 0.00 37 1015.7
20260906025204 77 321 3.0 13.0 0.00 0.00 0.00 37 1015.6
20260906024204 77 304 6.0 13.0 0.00 0.00 0.00 36 1015.6
20260906023706 77 300 6.0 12.0 0.00 0.00 0.00 35 1015.5
20260906023204 77 287 6.0 15.0 0.00 0.00 0.00 35 1015.5
20260906022705 77 358 7.0 15.0 0.00 0.00 0.00 34 1015.5
20260906022204 78 315 8.0 15.0 0.00 0.00 0.00 33 1015.4
20260906021706 78 286 8.0 13.0 0.00 0.00 0.00 33 1015.4
20260906021205 78 358 8.0 12.0 0.00 0.00 0.00 32 1015.3
20260906020704 78 293 7.0 14.0 0.00 0.00 0.00 32 1015.3
20260906020204 79 290 7.0 16.0 0.00 0.00 0.00 32 1015.3
20260906014704 80 273 9.0 15.0 0.00 0.00 0.00 32 1015.3
20260906014204 80 358 9.0 13.0 0.00 0.00 0.00 31 1015.3
20260906013704 80 358 8.0 13.0 0.00 0.00 0.00 31 1015.3
20260906013204 80 358 8.0 15.0 0.00 0.00 0.00 31 1015.3
20260906012704 80 288 9.0 15.0 0.00 0.00 0.00 31 1015.3
20260906012204 81 313 10.0 14.0 0.00 0.00 0.00 31 1015.3
20260906011704 81 358 9.0 14.0 0.00 0.00 0.00 30 1015.4
20260906011205 82 340 8.0 13.0 0.00 0.00 0.00 34 1015.4
20260906010204 83 345 8.0 16.0 0.00 0.00 0.00 34 1015.4
20260906005704 83 353 8.0 16.0 0.00 0.00 0.00 33 1015.4
20260906005204 83 337 8.0 16.0 0.00 0.00 0.00 33 1015.3
20260906004204 83 8 8.0 18.0 0.00 0.00 0.00 32 1015.3
20260906003704 83 343 10.0 18.0 0.00 0.00 0.00 31 1015.3
20260906003204 83 10 10.0 18.0 0.00 0.00 0.00 32 1015.2
20260906002204 84 10 9.0 19.0 0.00 0.00 0.00 30 1015.2
20260906001704 85 331 10.0 19.0 0.00 0.00 0.00 29 1015.2
20260906000206 85 346 9.0 15.0 0.00 0.00 0.00 29 1015.1
20260905235704 85 3 9.0 15.0 0.00 0.00 0.00 28 1015.1
20260905235204 86 51 8.0 19.0 0.00 0.00 0.00 28 1015.0
20260905234705 85 8 10.0 19.0 0.00 0.00 0.00 28 1015.1
20260905234206 85 15 12.0 20.0 0.00 0.00 0.00 28 1015.0
20260905233704 85 21 11.0 20.0 0.00 0.00 0.00 28 1015.0
20260905232704 85 7 13.0 22.0 0.00 0.00 0.00 27 1015.0
20260905232204 85 353 14.0 23.0 0.00 0.00 0.00 27 1015.0
20260905231703 85 11 14.0 23.0 0.00 0.00 0.00 28 1015.0
20260905231205 85 358 14.0 23.0 0.00 0.00 0.00 26 1015.0
20260905230704 86 3 13.0 25.0 0.00 0.00 0.00 26 1015.0
20260905230204 87 3 14.0 26.0 0.00 0.00 0.00 26 1014.9
20260905225705 87 16 15.0 26.0 0.00 0.00 0.00 26 1014.9
20260905225204 87 8 15.0 26.0 0.00 0.00 0.00 26 1014.9
20260905224704 86 353 15.0 22.0 0.00 0.00 0.00 26 1015.0
20260905224203 87 13 14.0 21.0 0.00 0.00 0.00 26 1015.0
20260905223704 87 348 14.0 24.0 0.00 0.00 0.00 26 1015.0
20260905223205 87 353 15.0 26.0 0.00 0.00 0.00 27 1015.1
20260905222704 87 12 15.0 26.0 0.00 0.00 0.00 27 1015.0
20260905222204 87 358 14.0 27.0 0.00 0.00 0.00 27 1015.1
20260905221704 87 12 14.0 27.0 0.00 0.00 0.00 27 1015.1
20260905220704 87 344 15.0 24.0 0.00 0.00 0.00 28 1015.2
20260905220204 87 353 15.0 24.0 0.00 0.00 0.00 27 1015.2
20260905215705 87 19 16.0 24.0 0.00 0.00 0.00 27 1015.2
20260905215205 87 11 15.0 24.0 0.00 0.00 0.00 27 1015.3